Flag for Norway Weather past 2 weeks in Stavanger, Norway

Now
46 °F

Broken clouds.


Feels Like: 41 °F
Forecast: 42 / 49 °F
Wind: 10 mph from North

Location: Stavanger / Sola

Current Time: Apr 21, 2015 at 12:21:40 PM

Latest Report: Apr 21, 2015 at 11:50 AM


Visibility: N/A

Pressure: 30.42 "Hg

Humidity: 76%

Dew point: 39 °F

Location of StavangerLocation

Historic Weather in Stavanger — Graph

°F

Stavanger temperature yesterday

Maximum temperature yesterday: 61 °F (at 11:20 AM)
Minimum temperature yesterday: 37 °F (at 4:50 AM)
Average temperature yesterday: 47 °F

Past Weeks' High & Low Weather Summary

 TemperatureHumidityPressure
High61 °F (Apr 20, 11:20 AM)100% (Apr 6, 10:20 AM)30.51 "Hg (Apr 6, 10:20 AM)
Low34 °F (Apr 17, 5:20 AM)41% (Apr 19, 11:20 AM)29.59 "Hg (Apr 11, 3:20 PM)
Average45 °F81%30.14 "Hg
* Reported Apr 6 10:20 AM — Apr 21 10:50 AM, Stavanger, Weather by CustomWeather, © 2015

Note: Actual official high and low records may vary slightly from our data, if they occured in-between our weather recording intervals... More about our weather records

Advertising

Stavanger weather history for previous 24 hours

 ConditionsComfort  
Time TempWeatherWind HumidityBarometerVisibility
10:50 AM
Tue, Apr 21
45 °FPartly sunny.12 mph76%30.42 "HgN/A
10:20 AM43 °FBroken clouds.9 mph87%30.42 "HgN/A
9:50 AM43 °FBroken clouds.10 mph87%30.42 "HgN/A
9:20 AM43 °FPartly sunny.9 mph87%30.42 "HgN/A
8:50 AM43 °FPartly sunny.9 mph87%30.42 "HgN/A
8:20 AM43 °FPartly sunny.10 mph87%30.42 "HgN/A
7:50 AM41 °FPartly sunny.9 mph93%30.42 "HgN/A
7:20 AM41 °FPartly sunny.9 mph93%30.42 "HgN/A
6:50 AM41 °FPassing clouds.8 mph93%30.39 "HgN/A
6:20 AM41 °FPassing clouds.7 mph93%30.39 "HgN/A
5:50 AM41 °FPassing clouds.7 mph93%30.39 "HgN/A
5:20 AM41 °FPassing clouds.8 mph93%30.42 "HgN/A
4:50 AM41 °FLow clouds.7 mph93%30.42 "HgN/A
3:50 AM41 °FLow clouds.6 mph100%30.42 "Hg6 mi
2:50 AM41 °FLow clouds.8 mph100%30.42 "Hg4 mi
1:50 AM41 °FFog.10 mph100%30.42 "Hg1 mi
12:50 AM41 °FFog.7 mph100%30.42 "Hg1 mi
12:20 AM41 °FFog.5 mph100%30.42 "Hg1 mi
11:50 PM
Mon, Apr 20
41 °FFog.7 mph100%30.42 "Hg1 mi
11:20 PM41 °FQuite cool.6 mph100%30.42 "Hg1 mi
10:50 PM43 °FQuite cool.5 mph93%30.42 "Hg0 mi
10:20 PM43 °FQuite cool.3 mph93%30.42 "Hg1 mi
9:50 PM43 °FFog.5 mph100%30.42 "Hg1 mi
9:20 PM45 °FFog.3 mph93%30.42 "Hg1 mi
8:50 PM45 °FFog.6 mph100%30.42 "Hg1 mi
8:20 PM45 °FQuite cool.6 mph100%30.42 "Hg1 mi
7:50 PM46 °FFog.7 mph93%30.42 "Hg1 mi
7:20 PM48 °FScattered clouds.7 mph94%30.42 "HgN/A
6:50 PM48 °FScattered clouds.9 mph87%30.42 "HgN/A
6:20 PM50 °FPassing clouds.9 mph82%30.45 "HgN/A
5:50 PM52 °FSunny.9 mph77%30.45 "Hg10 mi
5:20 PM54 °FSunny.10 mph72%30.45 "Hg10 mi
4:50 PM54 °FSunny.9 mph72%30.45 "Hg10 mi
4:20 PM54 °FSunny.7 mph67%30.45 "Hg10 mi
3:50 PM52 °FSunny.10 mph77%30.45 "Hg10 mi
3:20 PM55 °FSunny.10 mph63%30.45 "Hg10 mi
2:50 PM57 °FSunny.8 mph55%30.45 "Hg10 mi
2:20 PM55 °FSunny.8 mph59%30.45 "Hg10 mi
1:50 PM55 °FSunny.8 mph47%30.45 "Hg10 mi
1:20 PM55 °FSunny.7 mph59%30.45 "Hg10 mi
12:50 PM55 °FSunny.8 mph59%30.45 "Hg10 mi
12:20 PM54 °FSunny.12 mph63%30.45 "Hg10 mi
Weather by CustomWeather, © 2015

See weather overviewHow to use our weather pages